Location: Ottobeuren
(47.9410°N, 10.3007°E)
Time: 11:39:07
(UTC+01:00)

OTV 5 (USA 277) - Visible Passes

Search period start: 22 February 2019 00:00
Search period end: 04 March 2019 00:00
Orbit: 342 x 346 km, 54.5° (Epoch: 17 February)

Date Brightness Start Highest point End Pass type
(mag) Time Alt. Az. Time Alt. Az. Time Alt. Az.
23 Feb ? 19:37:40 10° SSW 19:38:24 15° S 19:38:24 15° S visible
24 Feb ? 20:00:44 10° SW 20:01:57 22° SW 20:01:57 22° SW visible
25 Feb ? 18:50:09 10° SSW 18:52:32 23° SE 18:53:53 17° E visible
25 Feb ? 20:24:28 10° WSW 20:25:21 17° W 20:25:21 17° W visible
26 Feb ? 19:13:10 10° SW 19:16:01 66° SE 19:17:09 32° ENE visible
26 Feb ? 20:48:33 10° WNW 20:48:36 10° WNW 20:48:36 10° WNW visible
27 Feb ? 19:36:53 10° WSW 19:39:42 50° NNW 19:40:19 40° NNE visible
28 Feb ? 20:00:58 10° WNW 20:03:23 28° NNW 20:03:23 28° NNW visible
01 Mar ? 18:49:18 10° WSW 18:52:08 51° NNW 18:54:57 10° NE visible
01 Mar ? 20:25:09 10° WNW 20:26:23 18° NW 20:26:23 18° NW visible
02 Mar ? 19:13:23 10° W 19:15:58 29° NNW 19:17:54 15° NE visible
02 Mar ? 20:49:08 10° NW 20:49:20 11° NW 20:49:20 11° NW visible
03 Mar ? 19:37:33 10° WNW 19:39:55 22° N 19:40:48 19° NNE visible
